Location: Nairn
(57.5833°N, 3.8667°W)
Time: 19:10:25
(UTC+00:00)

Cosmos 1354 Rocket - Pass Details

Date: 07 August 2020
Orbit: 765 x 782 km, 74.0° (Epoch: 24 September)

Event Time Altitude Azimuth Distance (km) Brightness Sun altitude
Exits shadow 01:56:59 18° 221° (SW) 1,829 5.4 -13.5°
Maximum altitude 02:00:57 71° 303° (WNW) 833 4.2 -13.3°
Drops below altitude 10° 02:06:18 10° 28° (NNE) 2,352 8.0 -13.0°
Sets 02:08:42 0° 31° (NNE) 3,282 9.3 -12.8°
